Tracking 19176 objects as of 27-May-2018
HD Live streaming from Space Station
objects crossing your sky now

FENGYUN 1C DEB

Track FENGYUN 1C DEB now!
10-day predictions


NORAD ID: 30216
Int'l Code: 1999-025VZ
Perigee: 624.5 km
Apogee: 742.9 km
Inclination: 99.1 °
Period: 98.3 minutes
Semi major axis: 7054 km
RCS: 0.0219 m2 (small)
Launch date: May 10, 1999
Source: People's Republic of China (PRC)
Launch site: Taiyaun Space Center, China (TSC)

Note: This is SATELLITE DEBRIS
aabbcc
Your satellite tracking list
Your tracking list is empty




NASA's NSSDC Master Catalog

Two Line Element Set (TLE):
1 30216U 99025VZ  18147.25066524 +.00001354 +00000-0 +25023-3 0  9996
2 30216 099.0864 141.0687 0083930 181.4809 301.3377 14.65158588600484
Source of the keplerian elements: AFSPC